VOZ1845 YPPH-YPPD

Flight info

Callsign VOZ1845
Flight time 1h 53m
Altitude 35000
Route PH Y15 ESDEG Y44 BUTON DCT PD
Aircraft B738/M-SDE2E3FGHIRWXY/LB1

Departure

Time 2026-04-27 16:22
Airport Perth International Airport (YPPH)

Arrival

Time 2026-04-27 18:16
Airport Port Hedland International Airport (YPPD)
Time Latitude Longitude Altitude Speed Heading
2026-04-27 15:57 -31.94155 115.97011 65 ft 0 kts 13°
2026-04-27 16:14 -31.94178 115.97007 61 ft 2 kts
2026-04-27 16:15 -31.94210 115.97011 60 ft 2 kts 328°
2026-04-27 16:15 -31.94226 115.97037 61 ft 1 kts 286°
2026-04-27 16:16 -31.94227 115.97038 61 ft 0 kts 286°
2026-04-27 16:18 -31.94219 115.97002 64 ft 13 kts 283°
2026-04-27 16:18 -31.94144 115.96827 59 ft 13 kts 358°
2026-04-27 16:19 -31.94025 115.96860 62 ft 22 kts 13°
2026-04-27 16:19 -31.93864 115.96906 60 ft 25 kts 12°
2026-04-27 16:20 -31.93367 115.97049 52 ft 23 kts 12°
2026-04-27 16:20 -31.93208 115.97097 52 ft 26 kts 13°
2026-04-27 16:20 -31.92928 115.97068 52 ft 21 kts 283°
2026-04-27 16:21 -31.92894 115.96905 51 ft 20 kts 284°
2026-04-27 16:21 -31.93869 115.96552 53 ft 127 kts 194°
2026-04-27 16:22 -31.94884 115.96260 171 ft 168 kts 194°
2026-04-27 16:22 -31.97141 115.95311 1507 ft 187 kts 213°
2026-04-27 16:22 -31.98056 115.94162 1991 ft 205 kts 241°
2026-04-27 16:23 -31.98330 115.92466 2225 ft 220 kts 280°
2026-04-27 16:23 -31.96176 115.90092 2777 ft 233 kts 354°
2026-04-27 16:23 -31.94530 115.90031 3153 ft 243 kts
2026-04-27 16:24 -31.92833 115.90040 3677 ft 247 kts
2026-04-27 16:24 -31.89432 115.90124 5030 ft 248 kts 359°
2026-04-27 16:25 -31.85879 115.90053 6015 ft 263 kts 358°
2026-04-27 16:25 -31.82162 115.89860 7156 ft 272 kts 356°
2026-04-27 16:26 -31.78332 115.89663 8379 ft 279 kts 356°
2026-04-27 16:26 -31.74399 115.89488 9632 ft 287 kts 356°
2026-04-27 16:27 -31.70295 115.89319 10436 ft 312 kts 356°
2026-04-27 16:27 -31.63327 115.89047 11002 ft 363 kts 356°
2026-04-27 16:28 -31.58235 115.88861 12216 ft 367 kts 356°
2026-04-27 16:28 -31.53103 115.88674 13472 ft 371 kts 356°
2026-04-27 16:29 -31.47918 115.88483 14663 ft 375 kts 356°
2026-04-27 16:30 -31.44630 115.88362 15421 ft 377 kts 356°
2026-04-27 16:31 -31.36708 115.88070 17138 ft 383 kts 355°
2026-04-27 16:31 -31.31345 115.87873 18230 ft 388 kts 355°
2026-04-27 16:32 -31.25916 115.87673 19148 ft 393 kts 355°
2026-04-27 16:32 -31.23209 115.87574 19569 ft 395 kts 355°
2026-04-27 16:33 -31.17678 115.87372 20443 ft 400 kts 355°
2026-04-27 16:33 -31.14883 115.87269 20880 ft 403 kts 355°
2026-04-27 16:33 -31.12075 115.87167 21289 ft 405 kts 355°
2026-04-27 16:33 -31.09245 115.87063 21697 ft 408 kts 355°
2026-04-27 16:34 -31.06401 115.86959 22094 ft 411 kts 355°
2026-04-27 16:34 -31.03537 115.86855 22486 ft 413 kts 355°
2026-04-27 16:34 -31.00654 115.86750 22863 ft 415 kts 355°
2026-04-27 16:34 -30.97757 115.86644 23235 ft 418 kts 355°
2026-04-27 16:35 -30.94843 115.86538 23599 ft 420 kts 355°
2026-04-27 16:35 -30.91913 115.86432 23900 ft 422 kts 355°
2026-04-27 16:35 -30.86018 115.86218 24514 ft 426 kts 355°
2026-04-27 16:36 -30.83050 115.86110 24814 ft 428 kts 355°
2026-04-27 16:36 -30.80066 115.86086 25097 ft 431 kts 359°
2026-04-27 16:36 -30.77060 115.86335 25381 ft 434 kts
2026-04-27 16:36 -30.74045 115.86660 25667 ft 436 kts
2026-04-27 16:37 -30.71014 115.87010 25951 ft 438 kts
2026-04-27 16:37 -30.67974 115.87360 26225 ft 440 kts
2026-04-27 16:37 -30.64921 115.87701 26495 ft 442 kts
2026-04-27 16:37 -30.61854 115.88033 26753 ft 443 kts
2026-04-27 16:38 -30.58776 115.88358 27016 ft 445 kts
2026-04-27 16:38 -30.55688 115.88679 27271 ft 447 kts
2026-04-27 16:38 -30.52586 115.88999 27511 ft 448 kts
2026-04-27 16:38 -30.49472 115.89318 27752 ft 450 kts
2026-04-27 16:39 -30.46351 115.89638 27989 ft 452 kts
2026-04-27 16:39 -30.43215 115.89959 28237 ft 453 kts
2026-04-27 16:39 -30.40080 115.90280 28564 ft 452 kts
2026-04-27 16:39 -30.36953 115.90602 28949 ft 450 kts
2026-04-27 16:40 -30.33839 115.90922 29328 ft 449 kts
2026-04-27 16:40 -30.30731 115.91240 29663 ft 448 kts
2026-04-27 16:40 -30.27667 115.91553 29989 ft 448 kts
2026-04-27 16:40 -30.24567 115.91870 30303 ft 447 kts
2026-04-27 16:41 -30.21477 115.92186 30636 ft 445 kts
2026-04-27 16:41 -30.18396 115.92501 30982 ft 443 kts
2026-04-27 16:41 -30.15332 115.92814 31296 ft 442 kts
2026-04-27 16:41 -30.12272 115.93126 31608 ft 441 kts
2026-04-27 16:42 -30.09261 115.93433 31931 ft 439 kts
2026-04-27 16:42 -30.06214 115.93743 32261 ft 438 kts
2026-04-27 16:42 -30.03188 115.94051 32569 ft 436 kts
2026-04-27 16:42 -30.00166 115.94359 32875 ft 435 kts 360°
2026-04-27 16:43 -29.97156 115.94665 33196 ft 434 kts 360°
2026-04-27 16:43 -29.94155 115.94970 33528 ft 432 kts 359°
2026-04-27 16:43 -29.91170 115.95273 33822 ft 430 kts 359°
2026-04-27 16:43 -29.88190 115.95576 34115 ft 429 kts 359°
2026-04-27 16:44 -29.85224 115.95876 34355 ft 428 kts 359°
2026-04-27 16:44 -29.82262 115.96176 34597 ft 426 kts 359°
2026-04-27 16:44 -29.79316 115.96475 34843 ft 425 kts 359°
2026-04-27 16:44 -29.76371 115.96773 35040 ft 425 kts 359°
2026-04-27 16:45 -29.73413 115.97070 35019 ft 427 kts 359°
2026-04-27 16:45 -29.67505 115.97668 35017 ft 424 kts 359°
2026-04-27 16:46 -29.65564 115.97865 35020 ft 423 kts 359°
2026-04-27 16:47 -29.49398 115.99495 35024 ft 416 kts 359°
2026-04-27 16:48 -29.43625 116.00075 35022 ft 417 kts 359°
2026-04-27 16:48 -29.37844 116.00655 35026 ft 418 kts 359°
2026-04-27 16:49 -29.29116 116.01531 35026 ft 421 kts 359°
2026-04-27 16:49 -29.23256 116.02118 35033 ft 424 kts 359°
2026-04-27 16:50 -29.17385 116.03254 35041 ft 433 kts
2026-04-27 16:50 -29.11524 116.04950 35034 ft 435 kts
2026-04-27 16:51 -29.05645 116.06651 35029 ft 436 kts
2026-04-27 16:51 -28.99752 116.08331 35031 ft 437 kts
2026-04-27 16:52 -28.93857 116.09998 35022 ft 436 kts
2026-04-27 16:52 -28.87971 116.11657 35020 ft 435 kts
2026-04-27 16:53 -28.82104 116.13309 35018 ft 434 kts
2026-04-27 16:53 -28.76257 116.14953 35023 ft 432 kts
2026-04-27 16:54 -28.70428 116.16590 35022 ft 431 kts
2026-04-27 16:54 -28.64614 116.18221 35025 ft 430 kts
2026-04-27 16:55 -28.58814 116.19846 35026 ft 429 kts
2026-04-27 16:55 -28.53017 116.21468 35024 ft 429 kts
2026-04-27 16:56 -28.47220 116.23089 35028 ft 429 kts
2026-04-27 16:56 -28.41417 116.24709 35025 ft 430 kts
2026-04-27 16:57 -28.35601 116.26332 35026 ft 431 kts
2026-04-27 16:57 -28.29812 116.27945 35023 ft 432 kts
2026-04-27 16:58 -28.26891 116.28759 35280 ft 433 kts
2026-04-27 16:58 -28.23957 116.29576 35167 ft 436 kts
2026-04-27 16:58 -28.18037 116.31219 35065 ft 439 kts
2026-04-27 16:59 -28.12092 116.32871 35033 ft 440 kts
2026-04-27 16:59 -28.06153 116.34521 35015 ft 439 kts
2026-04-27 17:00 -27.97272 116.36983 35014 ft 437 kts
2026-04-27 17:01 -27.91383 116.38612 35014 ft 435 kts
2026-04-27 17:01 -27.85514 116.40234 35018 ft 433 kts
2026-04-27 17:02 -27.79664 116.41849 35014 ft 432 kts
2026-04-27 17:02 -27.73828 116.43458 35019 ft 431 kts
2026-04-27 17:03 -27.68000 116.45062 35013 ft 431 kts
2026-04-27 17:03 -27.62175 116.46663 35019 ft 431 kts
2026-04-27 17:04 -27.56348 116.48264 35012 ft 431 kts
2026-04-27 17:04 -27.50514 116.49865 35008 ft 432 kts
2026-04-27 17:05 -27.44671 116.51467 34995 ft 432 kts
2026-04-27 17:05 -27.38823 116.53069 35005 ft 433 kts
2026-04-27 17:06 -27.32972 116.54669 35005 ft 433 kts
2026-04-27 17:06 -27.27113 116.56271 35000 ft 433 kts
2026-04-27 17:07 -27.21250 116.57872 35003 ft 434 kts
2026-04-27 17:07 -27.15427 116.59460 35001 ft 433 kts
2026-04-27 17:08 -27.09572 116.61056 35001 ft 433 kts
2026-04-27 17:08 -27.03727 116.62647 34999 ft 432 kts
2026-04-27 17:09 -26.97891 116.64234 34993 ft 431 kts
2026-04-27 17:09 -26.92069 116.65815 34995 ft 430 kts
2026-04-27 17:10 -26.86262 116.67390 34990 ft 429 kts
2026-04-27 17:10 -26.80466 116.68960 34987 ft 428 kts
2026-04-27 17:11 -26.74684 116.70526 34989 ft 427 kts
2026-04-27 17:11 -26.66029 116.72866 34988 ft 426 kts
2026-04-27 17:12 -26.57387 116.75197 34986 ft 426 kts
2026-04-27 17:13 -26.51629 116.76748 34982 ft 426 kts
2026-04-27 17:13 -26.45866 116.78299 34983 ft 426 kts
2026-04-27 17:14 -26.40095 116.79851 34976 ft 427 kts
2026-04-27 17:14 -26.34328 116.81401 34982 ft 427 kts
2026-04-27 17:15 -26.28555 116.82950 34987 ft 427 kts
2026-04-27 17:15 -26.22783 116.84498 34976 ft 427 kts
2026-04-27 17:16 -26.17013 116.86044 34977 ft 427 kts
2026-04-27 17:16 -26.11243 116.87588 34973 ft 426 kts
2026-04-27 17:17 -26.05478 116.89130 34978 ft 426 kts
2026-04-27 17:17 -25.99723 116.90667 34971 ft 425 kts
2026-04-27 17:18 -25.91144 116.92956 34971 ft 424 kts
2026-04-27 17:18 -25.85410 116.94483 34971 ft 423 kts
2026-04-27 17:19 -25.79684 116.96007 34970 ft 423 kts
2026-04-27 17:19 -25.74927 116.97272 34972 ft 423 kts
2026-04-27 17:20 -25.69207 116.98791 34967 ft 423 kts
2026-04-27 17:20 -25.63484 117.00309 34971 ft 423 kts
2026-04-27 17:21 -25.57764 117.01825 34970 ft 423 kts
2026-04-27 17:21 -25.52037 117.03342 34973 ft 423 kts
2026-04-27 17:22 -25.46301 117.04859 34971 ft 424 kts
2026-04-27 17:22 -25.40553 117.06379 34970 ft 425 kts
2026-04-27 17:23 -25.34803 117.07897 34974 ft 425 kts
2026-04-27 17:23 -25.29052 117.09414 34970 ft 426 kts
2026-04-27 17:24 -25.23283 117.10935 34972 ft 427 kts
2026-04-27 17:24 -25.17498 117.12458 34970 ft 428 kts
2026-04-27 17:25 -25.11705 117.13981 34973 ft 429 kts
2026-04-27 17:25 -25.05896 117.15508 34968 ft 429 kts
2026-04-27 17:26 -25.00079 117.17036 34970 ft 430 kts
2026-04-27 17:26 -24.94245 117.18566 34965 ft 431 kts
2026-04-27 17:27 -24.88439 117.20087 34967 ft 433 kts
2026-04-27 17:27 -24.82575 117.21622 34967 ft 433 kts
2026-04-27 17:28 -24.76702 117.23158 34967 ft 435 kts
2026-04-27 17:29 -24.67855 117.25470 34968 ft 436 kts
2026-04-27 17:29 -24.61942 117.27012 34965 ft 437 kts
2026-04-27 17:30 -24.56013 117.28559 34973 ft 438 kts
2026-04-27 17:30 -24.47107 117.30878 34972 ft 439 kts
2026-04-27 17:31 -24.41152 117.32425 34972 ft 440 kts
2026-04-27 17:31 -24.35191 117.33970 34972 ft 441 kts
2026-04-27 17:32 -24.26231 117.36292 34971 ft 442 kts
2026-04-27 17:33 -24.20241 117.37843 34966 ft 442 kts
2026-04-27 17:33 -24.14250 117.39393 34971 ft 443 kts
2026-04-27 17:34 -24.08288 117.40934 34974 ft 444 kts
2026-04-27 17:34 -24.02275 117.42486 34967 ft 444 kts
2026-04-27 17:35 -23.96253 117.44039 34975 ft 445 kts
2026-04-27 17:35 -23.91203 117.45341 34956 ft 445 kts
2026-04-27 17:36 -23.84188 117.47147 34973 ft 446 kts
2026-04-27 17:36 -23.78146 117.48701 34962 ft 446 kts
2026-04-27 17:37 -23.72116 117.50251 34971 ft 446 kts
2026-04-27 17:37 -23.66049 117.51808 34970 ft 447 kts
2026-04-27 17:38 -23.59997 117.53361 34966 ft 447 kts
2026-04-27 17:38 -23.53945 117.54912 34966 ft 447 kts
2026-04-27 17:39 -23.47893 117.56461 34974 ft 447 kts
2026-04-27 17:39 -23.41845 117.58008 34971 ft 446 kts
2026-04-27 17:40 -23.35804 117.59552 34976 ft 446 kts
2026-04-27 17:40 -23.29765 117.61093 34980 ft 445 kts
2026-04-27 17:41 -23.23734 117.62631 34984 ft 445 kts
2026-04-27 17:41 -23.17730 117.64161 34980 ft 445 kts
2026-04-27 17:42 -23.11704 117.65695 34990 ft 445 kts
2026-04-27 17:42 -23.05678 117.67227 34998 ft 445 kts
2026-04-27 17:43 -22.99688 117.68749 35000 ft 445 kts
2026-04-27 17:43 -22.93659 117.70279 35008 ft 445 kts
2026-04-27 17:44 -22.87626 117.71809 35001 ft 445 kts
2026-04-27 17:44 -22.81590 117.73338 35013 ft 446 kts
2026-04-27 17:45 -22.75548 117.74868 35010 ft 446 kts
2026-04-27 17:45 -22.69498 117.76397 35006 ft 447 kts
2026-04-27 17:46 -22.63437 117.77929 35021 ft 447 kts
2026-04-27 17:46 -22.57413 117.79450 35014 ft 448 kts
2026-04-27 17:47 -22.51301 117.80992 35016 ft 448 kts
2026-04-27 17:47 -22.45268 117.82513 35024 ft 448 kts
2026-04-27 17:48 -22.39192 117.84043 35015 ft 448 kts
2026-04-27 17:48 -22.35879 117.84877 34992 ft 449 kts
2026-04-27 17:50 -22.24412 117.87754 32725 ft 455 kts
2026-04-27 17:50 -22.20360 117.88777 32084 ft 449 kts
2026-04-27 17:51 -22.17330 117.89541 31615 ft 446 kts
2026-04-27 17:51 -22.14360 117.90287 31139 ft 442 kts
2026-04-27 17:51 -22.11376 117.91036 30669 ft 439 kts
2026-04-27 17:51 -22.09202 117.91581 30302 ft 438 kts
2026-04-27 17:52 -22.06378 117.92287 29800 ft 436 kts
2026-04-27 17:52 -22.03436 117.93022 29272 ft 432 kts
2026-04-27 17:52 -22.00526 117.93751 28782 ft 428 kts
2026-04-27 17:52 -21.98571 117.94241 28449 ft 425 kts
2026-04-27 17:53 -21.94775 117.95191 27820 ft 421 kts
2026-04-27 17:53 -21.91935 117.95901 27349 ft 417 kts
2026-04-27 17:53 -21.89120 117.96604 26884 ft 414 kts
2026-04-27 17:53 -21.86324 117.97302 26420 ft 411 kts
2026-04-27 17:54 -21.83546 117.97995 25967 ft 408 kts
2026-04-27 17:54 -21.80787 117.98684 25510 ft 406 kts
2026-04-27 17:54 -21.78050 117.99366 25037 ft 404 kts
2026-04-27 17:54 -21.75318 118.00046 24578 ft 402 kts
2026-04-27 17:55 -21.72593 118.00725 24115 ft 401 kts
2026-04-27 17:55 -21.69878 118.01401 23654 ft 400 kts
2026-04-27 17:55 -21.67175 118.02074 23126 ft 398 kts
2026-04-27 17:55 -21.65391 118.02519 22802 ft 397 kts
2026-04-27 17:56 -21.61810 118.03411 22174 ft 393 kts
2026-04-27 17:56 -21.59158 118.04072 21723 ft 390 kts
2026-04-27 17:56 -21.57411 118.04506 21423 ft 388 kts
2026-04-27 17:56 -21.54786 118.05159 20981 ft 386 kts
2026-04-27 17:57 -21.52175 118.05807 20538 ft 384 kts
2026-04-27 17:57 -21.49579 118.06452 20099 ft 382 kts
2026-04-27 17:57 -21.46992 118.07095 19642 ft 381 kts
2026-04-27 17:57 -21.44415 118.07735 19207 ft 380 kts
2026-04-27 17:58 -21.41844 118.08381 18755 ft 379 kts 11°
2026-04-27 17:58 -21.39335 118.09301 18223 ft 384 kts 18°
2026-04-27 17:58 -21.36865 118.10396 17689 ft 384 kts 19°
2026-04-27 17:58 -21.34415 118.11507 17243 ft 381 kts 20°
2026-04-27 17:59 -21.31982 118.12612 16802 ft 378 kts 20°
2026-04-27 17:59 -21.29569 118.13703 16366 ft 376 kts 20°
2026-04-27 17:59 -21.27167 118.14783 15947 ft 373 kts 20°
2026-04-27 17:59 -21.24781 118.15850 15523 ft 370 kts 20°
2026-04-27 18:00 -21.22408 118.16908 15106 ft 368 kts 20°
2026-04-27 18:00 -21.20049 118.17957 14684 ft 366 kts 21°
2026-04-27 18:00 -21.17700 118.19001 14267 ft 364 kts 21°
2026-04-27 18:00 -21.16437 118.19561 14039 ft 364 kts 21°
2026-04-27 18:01 -21.09031 118.22845 12646 ft 356 kts 22°
2026-04-27 18:01 -21.06752 118.23854 12236 ft 352 kts 22°
2026-04-27 18:02 -21.04500 118.24852 11837 ft 349 kts 23°
2026-04-27 18:02 -21.02266 118.25840 11443 ft 346 kts 23°
2026-04-27 18:02 -21.00057 118.26818 11053 ft 342 kts 23°
2026-04-27 18:02 -20.97867 118.27787 10662 ft 339 kts 24°
2026-04-27 18:03 -20.95714 118.28739 10505 ft 328 kts 24°
2026-04-27 18:03 -20.93637 118.29657 10365 ft 318 kts 24°
2026-04-27 18:03 -20.91624 118.30546 10235 ft 308 kts 24°
2026-04-27 18:03 -20.89674 118.31407 10108 ft 299 kts 24°
2026-04-27 18:04 -20.87807 118.32232 9991 ft 290 kts 24°
2026-04-27 18:04 -20.85982 118.33038 9966 ft 278 kts 25°
2026-04-27 18:04 -20.84201 118.33824 9500 ft 282 kts 25°
2026-04-27 18:04 -20.82401 118.34621 9175 ft 281 kts 25°
2026-04-27 18:05 -20.80601 118.35417 8872 ft 279 kts 25°
2026-04-27 18:05 -20.78815 118.36206 8577 ft 277 kts 25°
2026-04-27 18:05 -20.77040 118.36989 8293 ft 275 kts 25°
2026-04-27 18:05 -20.75281 118.37765 8010 ft 273 kts 25°
2026-04-27 18:06 -20.73531 118.38537 7730 ft 271 kts 25°
2026-04-27 18:06 -20.71796 118.39302 7454 ft 269 kts 25°
2026-04-27 18:06 -20.70073 118.40061 7182 ft 267 kts 25°
2026-04-27 18:06 -20.68364 118.40815 6909 ft 265 kts 25°
2026-04-27 18:07 -20.66665 118.41563 6647 ft 263 kts 25°
2026-04-27 18:07 -20.64975 118.42308 6379 ft 262 kts 25°
2026-04-27 18:07 -20.63296 118.43047 6093 ft 261 kts 25°
2026-04-27 18:07 -20.61625 118.43784 5812 ft 259 kts 25°
2026-04-27 18:08 -20.59964 118.44515 5547 ft 258 kts 25°
2026-04-27 18:08 -20.58563 118.45131 5327 ft 256 kts 25°
2026-04-27 18:08 -20.56921 118.45854 5068 ft 255 kts 25°
2026-04-27 18:08 -20.55287 118.46573 4806 ft 253 kts 24°
2026-04-27 18:09 -20.53663 118.47287 4542 ft 252 kts 24°
2026-04-27 18:09 -20.52048 118.47998 4283 ft 251 kts 24°
2026-04-27 18:09 -20.50444 118.48661 4145 ft 242 kts 15°
2026-04-27 18:09 -20.48811 118.48665 4031 ft 231 kts 351°
2026-04-27 18:10 -20.47276 118.48282 3814 ft 224 kts 348°
2026-04-27 18:10 -20.45771 118.47875 3469 ft 223 kts 348°
2026-04-27 18:10 -20.44270 118.47472 3128 ft 222 kts 348°
2026-04-27 18:10 -20.42770 118.47080 2855 ft 222 kts 348°
2026-04-27 18:11 -20.41304 118.46705 2660 ft 220 kts 348°
2026-04-27 18:11 -20.39860 118.46681 2380 ft 218 kts 18°
2026-04-27 18:11 -20.38608 118.47454 2344 ft 203 kts 43°
2026-04-27 18:11 -20.37744 118.48584 2219 ft 192 kts 52°
2026-04-27 18:12 -20.36960 118.49689 2089 ft 181 kts 52°
2026-04-27 18:12 -20.36202 118.50752 1847 ft 179 kts 52°
2026-04-27 18:12 -20.35435 118.51822 1813 ft 183 kts 52°
2026-04-27 18:12 -20.34668 118.52891 1783 ft 180 kts 51°
2026-04-27 18:13 -20.33955 118.53883 1786 ft 166 kts 51°
2026-04-27 18:13 -20.33274 118.54826 1751 ft 158 kts 51°
2026-04-27 18:13 -20.32655 118.55791 1740 ft 158 kts 65°
2026-04-27 18:13 -20.32601 118.56942 1572 ft 159 kts 110°
2026-04-27 18:14 -20.33216 118.57958 1276 ft 165 kts 127°
2026-04-27 18:14 -20.33965 118.58821 931 ft 159 kts 137°
2026-04-27 18:14 -20.34721 118.59513 739 ft 147 kts 138°
2026-04-27 18:14 -20.35466 118.60251 566 ft 148 kts 137°
2026-04-27 18:15 -20.36229 118.61001 410 ft 152 kts 137°
2026-04-27 18:15 -20.37026 118.61786 169 ft 159 kts 137°
2026-04-27 18:15 -20.37760 118.62506 36 ft 152 kts 141°
2026-04-27 18:15 -20.38414 118.63140 33 ft 120 kts 137°
2026-04-27 18:16 -20.38920 118.63634 32 ft 74 kts 137°
2026-04-27 18:16 -20.39023 118.63823 32 ft 17 kts 34°
2026-04-27 18:16 -20.38936 118.63906 32 ft 16 kts 19°
2026-04-27 18:16 -20.38859 118.63842 32 ft 11 kts 318°
2026-04-27 18:17 -20.38801 118.63787 32 ft 11 kts 318°
2026-04-27 18:17 -20.38745 118.63734 32 ft 11 kts 318°
2026-04-27 18:17 -20.38690 118.63681 32 ft 10 kts 318°
2026-04-27 18:17 -20.38638 118.63629 31 ft 10 kts 312°
2026-04-27 18:18 -20.38585 118.63570 32 ft 16 kts 318°
2026-04-27 18:18 -20.38466 118.63456 32 ft 29 kts 317°
2026-04-27 18:18 -20.38315 118.63307 30 ft 29 kts 316°
2026-04-27 18:18 -20.38174 118.63168 32 ft 24 kts 317°
2026-04-27 18:19 -20.38112 118.63114 32 ft 6 kts 352°
2026-04-27 18:19 -20.38077 118.63139 32 ft 7 kts 43°
2026-04-27 18:19 -20.38035 118.63183 32 ft 10 kts 47°
2026-04-27 18:19 -20.37970 118.63213 32 ft 11 kts
2026-04-27 18:20 -20.37921 118.63168 32 ft 8 kts 278°
2026-04-27 18:20 -20.37916 118.63116 32 ft 7 kts 274°
2026-04-27 18:20 -20.37887 118.63080 32 ft 8 kts 344°
2026-04-27 18:20 -20.37866 118.63089 32 ft 1 kts 47°
2026-04-27 18:21 -20.37861 118.63094 32 ft 0 kts 45°